Regional Weather Roundup
Issued by NWS Charleston, SC

Current Version | Previous Version | Graphics & Text | Print | Product List | Glossary On
Versions: 1 2 3 4 5 6 7 8 9 10 11 12 13 14 15 16 17 18 19 20 21 22 23 24 25 26 27 28 29 30 31 32 33 34 35 36 37 38 39 40 41 42 43 44 45 46 47 48 49 50
000
ASUS42 KCHS 231212
RWRCHS

REGIONAL WEATHER ROUNDUP
NATIONAL WEATHER SERVICE CHARLESTON SC
700 AM EST THU NOV 23 2017

NOTE: "FAIR" INDICATES FEW OR NO CLOUDS BELOW 12,000 FEET WITH NO
SIGNIFICANT WEATHER AND/OR OBSTRUCTIONS TO VISIBILITY.

NOT ALL STATIONS ARE QUALITY CONTROLLED. USE DATA WITH CAUTION...
ESPECIALLY DEWPOINT OBSERVATIONS.

SCZ027-030-031-034>040-042>050-231300-
...SOUTHEAST SOUTH CAROLINA...

CITY           SKY/WX    TMP DP  RH WIND       PRES   REMARKS
N CHARLESTON   CLOUDY    48  39  71 NE6       30.07R
6HR MIN TEMP:  48; 6HR MAX TEMP:  54;

WATERFRONT PRK NOT AVBL
JOHNS ISLAND   FAIR      50  41  71 N6        30.07R
PINOPOLIS        N/A     46  41  81 NE13      29.99S
MONCKS CORNER  FAIR      45  36  70 N3        30.08R
SUMMERVILLE    PTSUNNY   46  37  71 CALM      30.10R
BEAUFORT MCAS  CLOUDY    51  42  71 NE8       30.06R
6HR MIN TEMP:  51; 6HR MAX TEMP:  57;

BEAUFORT ARPT  DRIZZLE   52  43  71 N10       30.05R
HILTON HEAD IS CLOUDY    54  41  62 N12       30.04
WALTERBORO     DRIZZLE   46  36  66 NE3       30.09R
ALLENDALE      CLOUDY    48  36  61 VRB3      30.07R

...SOUTHERN MIDLANDS AND PEE DEE...

CITY           SKY/WX    TMP DP  RH WIND       PRES   REMARKS
GEORGETOWN     FAIR      46  41  81 NE7       30.08S
KINGSTREE      FAIR      43  34  70 N3        30.09F
ORANGEBURG     CLOUDY    46  33  60 NE7       30.09R
6HR MIN TEMP:  46; 6HR MAX TEMP:  52;

BARNWELL         N/A     48  36  61 NE7       30.08S
AIKEN          FAIR      43  32  65 NE7       30.12R
MANNING        FAIR      43  32  65 MISG      30.08F
COLUMBIA       CLOUDY    47  30  51 NE6       30.11R
6HR MIN TEMP:  47; 6HR MAX TEMP:  54;

SUMTER         PTCLDY    42  30  63 NE9       30.08S
6HR MIN TEMP:  41; 6HR MAX TEMP:  49;

FLORENCE       MOCLDY    41  32  70 N6        30.12R
6HR MIN TEMP:  41; 6HR MAX TEMP:  47;

MYRTLE BEACH   PTCLDY    46  37  71 NE10      30.10R
N MYRTLE BEACH MOCLDY    45  37  73 NE9       30.09R
6HR MIN TEMP:  45; 6HR MAX TEMP:  49;


$$

GAZ063-065-086>088-099>101-113>116-118-119-134>141-150-231300-
...SOUTHEAST GEORGIA...

CITY           SKY/WX    TMP DP  RH WIND       PRES   REMARKS
SAVANNAH ARPT  LGT RAIN  51  45  79 NE7       30.03F
6HR MIN TEMP:  51; 6HR MAX TEMP:  58; 6HR PCP: TRACE;

HUNTER AAF     CLOUDY    53  45  73 NE3       30.00F
6HR MIN TEMP:  53; 6HR MAX TEMP:  59; 6HR PCP: TRACE;

FORT STEWART   CLOUDY    52  48  85 N5        30.01S
6HR MIN TEMP:  52; 6HR MAX TEMP:  58; 6HR PCP:  0.03;

STATESBORO     DRIZZLE   52  39  61 NE3       30.05S
SYLVANIA       DRIZZLE   51  42  69 E3        30.07R
CLAXTON        LGT RAIN  54  46  75 N5        30.04S

...CSRA...CENTRAL AND FAR SOUTHEAST GEORGIA...

CITY           SKY/WX    TMP DP  RH WIND       PRES   REMARKS
THOMSON        PTCLDY    46  37  69 E6        30.13S
AUGUSTA-BUSH   MOCLDY    49  33  54 NE6       30.08R
6HR MIN TEMP:  49; 6HR MAX TEMP:  56;

AUGUSTA-DANIEL CLOUDY    49  31  49 NE9       30.09R
SWAINSBORO     CLOUDY    52  43  71 NE7       30.06S
VIDALIA        LGT RAIN  54  46  76 NE6       30.03S
EASTMAN        CLOUDY    57  37  46 E7        30.05S
HAZLEHURST     FAIR      54  47  76 NE5       30.01R
ALMA           CLOUDY    56  53  90 NE7       29.99F
6HR MIN TEMP:  56; 6HR MAX TEMP:  60; 6HR PCP:  0.06;

WAYCROSS       LGT RAIN  58  55  91 E10       29.99F
JESUP          RAIN      55  52  88 CALM      30.02S
BAXLEY         LGT RAIN  52  52 100 E7        30.01S
BRUNSWICK      CLOUDY    59  54  82 N9        30.00S
SAINT SIMONS   CLOUDY    62  58  86 N14       29.98S
6HR MIN TEMP:  60; 6HR MAX TEMP:  63;


$$

SCZ027-028-034-036>038-045-046-048>050-GAZ119-141-231300-
...LAKE AND SUPPLEMENTAL COASTAL OBSERVATIONS...

STATION/POSITION TIME  TEMP    WIND        PRES    WAVE   SWELL
                       AIR SEA DIR/SP/G            HT/PER HT/PER/DIR
                 (UTC) (F)     (DEG/KT/KT) (MB)    (FT/S) (FT/S/D)
WINYAH BAY       NOT AVBL
LAKE MURRAY      1120   45      40/  2/  4 1019.0
ACE BASIN NERRS  1045   51      20/  3     1017.0
FORT PULASKI     1142   55 62   40/ 10/ 12 1016.9F
SAPELO ISLAND    1100   60      30/  8     1016.0

$$

ANZ835-935-AMZ111-154-330-350-352-354-370-450-454-472-231300-
...C-MAN AND BUOY OBSERVATIONS...

STATION/POSITION TIME  TEMP    WIND        PRES    WAVE   SWELL
                       AIR SEA DIR/SP/G            HT/PER HT/PER/DIR
                 (UTC) (F)     (DEG/KT/KT) (MB)    (FT/S) (FT/S/D)
BUOY 41004       1150   65 75   30/ 16/ 21 1015.9S   6/ 6   2/130/ 9
BUOY 41008       1150   65 67   40/ 21/ 23 1014.6S   5/ 5   2/110/ 9
FOLLY BEACH CMAN 1100   53      30/ 15/ 17 1017.8F
CAPERS NEARSHORE 1108   51 61   40/ 17/ 23 1016.9F
FRIPP NEARSHORE  1108   54 62   40/ 12/ 23 1015.6S


STATION/POSITION TIME  TEMP    WIND        PRES    WAVE   SWELL
                       AIR SEA DIR/SP/G            HT/PER HT/PER/DIR
                 (UTC) (F)     (DEG/KT/KT) (MB)    (FT/S) (FT/S/D)
5E ST. MARYS GA  1130      66                N/A     4/ 8
FRYING PAN BUOY  1150   61 72   40/ 19/ 25 1017.3R   7/ 9   3/120/ 9
BUOY 41025       1200   57 71   10/ 14/ 17 1018.9
CAPE LOOKOUT NC  1100           20/ 12/ 14 1019.5R
BUOY 41002       1150   71 76   40/ 17/ 21 1014.5R   7/ 9   3/110/ 9
BUOY 41010       NOT AVBL
ST AUGUSTINE FL  1200   67 69  360/ 19/ 20 1013.5R


$$




USA.gov is the U.S. government's official web portal to all federal, state and local government web resources and services.